Location: Home
(42.5358°N, 72.7383°W)
Time: 10:24:41
(UTC-05:00)

Courier 1B - Pass Details

Date: 03 December 2021
Orbit: 962 x 1209 km, 28.3° (Epoch: 21 January)

Event Time Altitude Azimuth Distance (km) Brightness Sun altitude
Rises 20:28:52 0° 254° (WSW) 3,868 11.2 -45.4°
Reaches altitude 10° 20:32:40 10° 236° (WSW) 2,860 10.3 -46.1°
Enters shadow 20:33:15 12° 232° (SW) 2,737 10.1 -46.2°
Maximum altitude 20:36:58 17° 198° (SSW) 2,304 - -46.8°
Drops below altitude 10° 20:41:08 10° 159° (SSE) 2,755 - -47.6°
Sets 20:44:43 0° 140° (SE) 3,670 - -48.2°
